Showing default

YAOGAN 20B, 40110

Orbit data source: Space-Track

YAOGAN 20B, 40110 is a payload satellite owned by PLA GAD (CN) in LEO that was launched on Sat, 09 Aug 2014 UTC via a CHANG ZHENG 4C launch vehicle from the Jiuquan Satellite Launch Center, China (JSC). Payload-class satellites include a variety of spacecraft equipped with specific instruments for various scientific and technological missions. These include communications satellites like Starlink; space stations such as the ISS; scientific satellites like the Hubble; Earth observation satellites from companies like Planet Labs, Umbra, and HawkEye 360; GPS; miniature CubeSats for education and research; and military/defense satellites.

Loading next visibility...
Identifier
40110, 2014-047B
Orbit
LEO
Country
Flag of CNCN / PRC
Related business
Manufacturer
CAST
Mission
Operational Defense Sigint
Bus & Motor
Unknown
Mass
~500 kg wet, ~500 kg dry
Launch date (UTC)
2014-08-09 (12 years ago)
Launch vehicle
CHANG ZHENG 4C
Launch site
Jiuquan Satellite Launch Center, China (JSC)
Object type
Payload
Rocket body
Debris
Shape & HBR
Box + 2 Pan, 0.5 m
Radar Cross Section
0.446 m², Large (>1 m²)

Expand to show TLE details & history
Last TLE update: 1 day ago

TLE from 1 day ago
0 YAOGAN 20B
1 40110U 14047B   26172.52471206 -.00000157  00000-0 -70492-4 0  9998
2 40110  63.3801   8.8422 0390289  14.7412 346.4617 13.45440362582865
Epoch: 2026-06-21T12:35Z
TLE epoch observation values (Epoch: 2026-06-21T12:35:35.121Z)
Latitude
-0.00014°
Longitude
-89.77795°
Altitude
808.142 km
Speed
7.589 km/s
True Right ascension
00h 35m 22s
True Declination
0° 00' 00"
Sunlit
Object was in daylight at epoch
Visualization orbit readout
Latitude
Unknown
Longitude
Unknown
Altitude
Unknown
Speed
Unknown
Apparent Right ascension
Unknown
Apparent Declination
Unknown
Sunlit
N/A
Visualization observer readout
Local Sidereal Time
02:14:40
Azimuth
Unknown
Elevation
Unknown
Doppler factor
Unknown
Orbital elements
Apogee altitude
1,379.303 km
Perigee altitude
796.519 km
Semi-major axis
7,466.048 km
Eccentricity
0.03903
Inclination
63.3801°
RAAN
8.8422°
Arg. of periapsis
14.7412°
True anomaly
345.36278°
Mean anomaly
346.4617°
Eccentric anomaly
345.9176°
Mean motion
3.3644 °/min
Orbital period
107 mins
BSTAR
-0.000070492
Loading maneuver chart data...
Computing Atmospheric mass density...
Loading historical data...
Loading historical data...
Loading historical data...
Loading historical data...
Loading historical data...
Loading historical data...
Loading historical data...

Documentation

Showing up to 5 results
|